Date String (YYYY-MM-DD hh:mm:ss) UTC,Instrument flags,absolute air pressure of the measurement (hPa),sample flow rate (lpm),inlet stack bypass flow (lpm),air temperature of the measurement (°C),ambient temperature measured by the external sensor (°C),aerosol sample conditioner tube jacket temperature (°C),OPC LED temperature (°C),internal box temperature (°C),relative humidity of the measurement (%),span deviation,mass concentration of particles derived from Lorenz-Mie calculation of OPC scattering (μg/m³),mass concentration of particles derived from Lorenz-Mie calculation of OPC scattering (μg/m³),mass concentration of particles derived from Lorenz-Mie calculation of OPC scattering (μg/m³)
DateTimeUTC,F1_M11,P_M11,Q1_M11,Q2_M11,T1_M11,T2_M11,T3_M11,T4_M11,T5_M11,U1_M11,ZSPAN_M11,X0_M11,X2_M11,X1_M11
2023-07-03 12:00:00,SystemResetWarning,0832.0,5.01,000.00,029.8,028.5,000.0,038.4,031.3,18.6,0000.0,0009.55,0004.15,0003.80
2023-07-03 12:01:00,SystemResetWarning,0832.0,5.01,000.00,029.8,028.5,000.0,038.4,031.3,17.8,0000.0,0009.61,0004.18,0003.81
2023-07-03 12:02:00,SystemResetWarning,0832.0,4.99,000.00,029.8,028.5,000.0,038.4,031.3,17.7,0000.0,0009.44,0004.19,0003.82
2023-07-03 12:03:00,SystemResetWarning,0832.0,5.00,000.00,029.8,028.5,000.0,038.4,031.4,18.0,0000.0,0009.37,0004.22,0003.83
2023-07-03 12:04:00,SystemResetWarning,0832.0,5.00,000.00,029.9,028.5,000.0,038.4,031.4,18.0,0000.0,0009.38,0004.22,0003.84
2023-07-03 12:05:00,SystemResetWarning,0832.0,5.00,000.00,029.9,028.5,000.0,038.4,031.4,18.8,0000.0,0009.40,0004.23,0003.84
2023-07-03 12:06:00,SystemResetWarning,0832.0,5.00,000.00,029.9,028.5,000.0,038.4,031.4,19.4,0000.0,0009.53,0004.25,0003.84
2023-07-03 12:07:00,SystemResetWarning,0831.9,5.00,000.00,029.9,028.6,000.0,038.4,031.4,19.8,0000.0,0009.16,0004.29,0003.86
2023-07-03 12:08:00,SystemResetWarning,0831.9,5.00,000.00,029.9,028.6,000.0,038.4,031.4,18.9,0000.0,0009.86,0004.31,0003.88
2023-07-03 12:09:00,SystemResetWarning,0831.9,5.00,000.00,029.9,028.6,000.0,038.4,031.4,18.9,0000.0,0009.81,0004.33,0003.90
2023-07-03 12:10:00,SystemResetWarning,0831.9,5.00,000.00,029.9,028.6,000.0,038.5,031.4,18.1,0000.0,0009.69,0004.34,0003.92
2023-07-03 12:11:00,SystemResetWarning,0831.9,5.01,000.00,029.9,028.6,000.0,038.5,031.4,17.8,0000.0,0008.98,0004.32,0003.92
2023-07-03 12:12:00,SystemResetWarning,0831.9,5.00,000.00,029.9,028.6,000.0,038.5,031.4,17.7,0000.0,0008.94,0004.31,0003.91
2023-07-03 12:13:00,SystemResetWarning,0832.0,5.00,000.00,029.9,028.6,000.0,038.5,031.4,17.6,0000.0,0008.96,0004.29,0003.89
2023-07-03 12:14:00,SystemResetWarning,0831.9,5.00,000.00,030.0,028.6,000.0,038.5,031.5,18.8,0000.0,0009.01,0004.28,0003.87
2023-07-03 12:15:00,SystemResetWarning,0831.9,5.00,000.00,030.0,028.6,000.0,038.5,031.5,19.1,0000.0,0009.06,0004.27,0003.86
2023-07-03 12:16:00,SystemResetWarning,0832.0,5.00,000.00,030.0,028.6,000.0,038.5,031.4,18.6,0000.0,0008.80,0004.23,0003.86
2023-07-03 12:17:00,SystemResetWarning,0832.0,5.00,000.00,030.0,028.6,000.0,038.5,031.4,18.5,0000.0,0008.65,0004.20,0003.85
2023-07-03 12:18:00,SystemResetWarning,0832.0,5.00,000.00,030.0,028.6,000.0,038.5,031.5,18.0,0000.0,0008.58,0004.18,0003.85
2023-07-03 12:19:00,SystemResetWarning,0831.9,5.00,000.00,030.0,028.6,000.0,038.5,031.5,18.8,0000.0,0008.47,0004.17,0003.84
2023-07-03 12:20:00,SystemResetWarning,0831.9,5.00,000.00,030.0,028.7,000.0,038.5,031.5,18.3,0000.0,0008.33,0004.14,0003.82
2023-07-03 12:21:00,SystemResetWarning,0831.9,5.00,000.00,030.0,028.7,000.0,038.5,031.5,17.9,0000.0,0007.90,0004.11,0003.80
2023-07-03 12:22:00,SystemResetWarning,0831.9,5.00,000.00,030.0,028.7,000.0,038.6,031.5,18.0,0000.0,0007.84,0004.10,0003.79
2023-07-03 12:23:00,SystemResetWarning,0831.9,5.00,000.00,030.0,028.7,000.0,038.6,031.5,18.2,0000.0,0007.89,0004.10,0003.79
2023-07-03 12:24:00,SystemResetWarning,0831.9,5.00,000.00,030.0,028.7,000.0,038.6,031.5,18.5,0000.0,0007.80,0004.08,0003.80
2023-07-03 12:25:00,SystemResetWarning,0831.9,5.00,000.00,030.0,028.7,000.0,038.6,031.5,19.2,0000.0,0007.77,0004.09,0003.81
2023-07-03 12:26:00,SystemResetWarning,0831.9,5.00,000.00,030.0,028.7,000.0,038.6,031.5,20.5,0000.0,0007.78,0004.12,0003.82
2023-07-03 12:27:00,SystemResetWarning,0832.0,5.00,000.00,030.0,028.7,000.0,038.6,031.5,20.5,0000.0,0007.84,0004.16,0003.84
2023-07-03 12:28:00,SystemResetWarning,0832.0,5.00,000.00,030.1,028.7,000.0,038.6,031.5,19.6,0000.0,0007.80,0004.17,0003.86
2023-07-03 12:29:00,SystemResetWarning,0832.0,5.00,000.00,030.1,028.7,000.0,038.6,031.5,19.2,0000.0,0007.81,0004.18,0003.86
2023-07-03 12:30:00,SystemResetWarning,0832.0,5.00,000.00,030.1,028.7,000.0,038.6,031.6,19.2,0000.0,0007.47,0004.19,0003.87
2023-07-03 12:31:00,SystemResetWarning,0832.0,4.99,000.00,030.1,027.3,000.0,038.5,031.4,19.3,0000.0,0006.79,0004.17,0003.87
2023-07-03 12:32:00,SystemResetWarning,0832.0,5.00,000.00,030.0,025.9,000.0,038.4,031.2,19.3,0000.0,0006.45,0004.19,0003.88
2023-07-03 12:33:00,SystemResetWarning,0832.0,5.01,000.00,029.9,025.9,000.0,038.3,031.0,19.5,0000.0,0006.61,0004.21,0003.89
2023-07-03 12:34:00,SystemResetWarning,0831.9,5.01,000.00,029.8,026.1,000.0,038.4,030.8,18.8,0000.0,0006.61,0004.19,0003.89
2023-07-03 12:35:00,SystemResetWarning,0831.9,5.00,000.00,029.7,026.5,000.0,038.4,030.9,18.8,0000.0,0006.71,0004.22,0003.91
2023-07-03 12:36:00,SystemResetWarning,0831.9,4.99,000.00,029.7,026.8,000.0,038.4,030.9,18.4,0000.0,0006.71,0004.22,0003.91
2023-07-03 12:37:00,SystemResetWarning,0832.0,4.99,000.00,029.7,027.1,000.0,038.3,030.9,18.5,0000.0,0006.65,0004.20,0003.91
2023-07-03 12:38:00,SystemResetWarning,0832.0,5.01,000.00,029.6,027.3,000.0,038.3,031.0,18.6,0000.0,0006.64,0004.19,0003.89
2023-07-03 12:39:00,SystemResetWarning,0832.0,5.02,000.00,029.6,027.6,000.0,038.3,031.0,18.7,0000.0,0006.68,0004.18,0003.87
2023-07-03 12:40:00,SystemResetWarning,0832.0,4.99,000.00,029.6,027.7,000.0,038.3,031.1,19.5,0000.0,0006.84,0004.18,0003.85
2023-07-03 12:41:00,SystemResetWarning,0832.0,4.98,000.00,029.7,027.9,000.0,038.3,031.1,20.8,0000.0,0006.84,0004.16,0003.83
2023-07-03 12:42:00,SystemResetWarning,0832.0,4.99,000.00,029.7,028.0,000.0,038.3,031.1,19.6,0000.0,0006.88,0004.16,0003.83
2023-07-03 12:43:00,SystemResetWarning,0832.0,5.01,000.00,029.7,028.1,000.0,038.3,031.1,19.4,0000.0,0007.17,0004.18,0003.84
2023-07-03 12:44:00,SystemResetWarning,0832.0,5.01,000.00,029.7,028.2,000.0,038.3,031.2,19.8,0000.0,0007.70,0004.16,0003.83
2023-07-03 12:45:00,SystemResetWarning,0832.1,5.01,000.00,029.7,028.2,000.0,038.3,031.2,19.9,0000.0,0007.71,0004.14,0003.82
2023-07-03 12:46:00,SystemResetWarning,0832.1,4.98,000.00,029.7,028.3,000.0,038.3,031.2,19.4,0000.0,0007.82,0004.15,0003.81
2023-07-03 12:47:00,SystemResetWarning,0832.0,4.99,000.00,029.7,028.3,000.0,038.3,031.2,21.3,0000.0,0007.83,0004.14,0003.80
2023-07-03 12:48:00,SystemResetWarning,0832.0,5.01,000.00,029.7,028.4,000.0,038.3,031.3,20.5,0000.0,0007.90,0004.17,0003.80
2023-07-03 12:49:00,SystemResetWarning,0832.0,5.01,000.00,029.8,028.4,000.0,038.3,031.3,20.9,0000.0,0008.12,0004.17,0003.80
2023-07-03 12:50:00,SystemResetWarning,0832.1,5.00,000.00,029.8,028.4,000.0,038.3,031.3,21.4,0000.0,0008.18,0004.18,0003.80
2023-07-03 12:51:00,SystemResetWarning,0832.0,4.99,000.00,029.8,028.5,000.0,038.3,031.3,21.4,0000.0,0008.12,0004.16,0003.80
2023-07-03 12:52:00,SystemResetWarning,0832.1,5.00,000.00,029.8,028.5,000.0,038.4,031.4,20.8,0000.0,0008.07,0004.18,0003.80
2023-07-03 12:53:00,SystemResetWarning,0832.1,4.99,000.00,029.8,028.6,000.0,038.4,031.4,20.0,0000.0,0008.45,0004.21,0003.80
2023-07-03 12:54:00,SystemResetWarning,0832.1,5.01,000.00,029.9,028.6,000.0,038.4,031.4,21.0,0000.0,0009.02,0004.20,0003.79
2023-07-03 12:55:00,SystemResetWarning,0832.1,5.00,000.00,029.9,028.6,000.0,038.4,031.4,21.9,0000.0,0008.50,0004.17,0003.78
2023-07-03 12:56:00,SystemResetWarning,0832.1,5.01,000.00,029.9,028.6,000.0,038.4,031.4,21.5,0000.0,0008.29,0004.17,0003.78
2023-07-03 12:57:00,SystemResetWarning,0832.1,5.00,000.00,029.9,028.7,000.0,038.4,031.4,21.2,0000.0,0008.18,0004.15,0003.77
2023-07-03 12:58:00,SystemResetWarning,0832.1,5.01,000.00,029.9,028.7,000.0,038.4,031.4,21.8,0000.0,0008.76,0004.14,0003.76
2023-07-03 12:59:00,SystemResetWarning,0832.2,5.01,000.00,029.9,028.7,000.0,038.4,031.5,21.6,0000.0,0008.94,0004.13,0003.76
